Simultaneous Nadir Overpasses (SNOs) Predictions

Prediction of SNOs between AQUA and NOAA-19 Satellite Orbit:

Table of predicted SNOs for the next 14.0 days since TLE Epoch: 2/15/2020
Index Date (AQUA) Time (AQUA) Lat,Lon (AQUA) SZA (AQUA ) Date (NOAA-19) Time (NOAA-19) Lat,Lon (NOAA-19) SZA (NOAA-19 ) Distance(km) Time Diff (sec)
1 02/15/2020 14:19:03 -79.98, 114.73 85.68 02/15/2020 14:18:32 -79.98, 114.71 85.66 0.40 31
2 02/15/2020 15:08:30 80.00, -77.82 94.35 02/15/2020 15:09:28 80.00, -77.72 94.32 1.95 58
3 02/17/2020 19:52:48 79.96,-148.60 93.53 02/17/2020 19:51:49 79.97,-148.64 93.57 0.98 59
4 02/17/2020 20:42:15 -79.97, 19.00 86.48 02/17/2020 20:42:52 -80.00, 18.97 86.46 3.03 37
5 02/20/2020 02:16:01 80.00, 115.35 92.78 02/20/2020 02:16:09 79.98, 115.46 92.75 3.14 8
6 02/22/2020 07:49:46 -79.97,-147.84 88.08 02/22/2020 07:49:34 -79.97,-147.89 88.07 0.97 12
7 02/22/2020 08:39:15 80.06, 18.97 92.07 02/22/2020 08:40:23 80.12, 21.46 91.86 47.88 68
8 02/24/2020 13:23:31 79.97, -51.28 91.11 02/24/2020 13:22:50 79.95, -51.36 91.12 2.50 41
9 02/24/2020 14:12:58 -79.97, 116.36 88.91 02/24/2020 14:13:54 -79.98, 116.32 88.92 2.14 56
10 02/26/2020 18:57:16 -79.94, 45.51 89.78 02/26/2020 18:56:15 -79.96, 45.50 89.73 2.33 61
11 02/26/2020 19:46:43 79.97,-147.11 90.26 02/26/2020 19:47:09 79.98,-146.95 90.25 3.30 26




NCC Satellite Simultaneous Nadir Overpasses (SNOs) Prediction Service
